Weather History for Hyannis, MA

Change the Weather History Date:

Wednesday, December 17, 2014

  Actual Average Record
Temperature  
Mean Temperature 48 °F -  
Max Temperature 52 °F 44 °F 61 °F (1982)
Min Temperature 43 °F 28 °F -3 °F (1942)
Degree Days  
Heating Degree Days 17    
Moisture  
Dew Point 46 °F    
Average Humidity 91    
Maximum Humidity 100    
Minimum Humidity 73    
Precipitation  
Precipitation 0.13 in - - ()
Sea Level Pressure  
Sea Level Pressure 29.72 in    
Wind  
Wind Speed 7 mph (SW)    
Max Wind Speed 14 mph    
Max Gust Speed 20 mph    
Visibility 7 miles    
Events Fog , Rain    
Averages and records for this station are not official NWS values.
T = Trace of Precipitation, MM = Missing Value Source: NWS Daily Summary

Daily Weather History Graph

Daily Weather History Graph

Search for Another Location

Airport:

Trip Planner

Search our weather history database for the weather conditions in past years. The results will help you decide how hot, cold, wet, or windy it might be!

Date:

Astronomy

Dec. 17, 2014 Rise Set
Actual Time 7:02 AM EST 4:12 PM EST
Civil Twilight 6:30 AM EST 4:43 PM EST
Nautical Twilight 5:55 AM EST 5:18 PM EST
Astronomical Twilight 5:21 AM EST 5:52 PM EST
Moon 2:09 AM EST (12/17) 1:16 PM EST (12/17)
Length of Visible Light 10h 12m
Length of Day
9h 09m
Waning Crescent, 21% of the Moon is Illuminated
Dec 17
Waning Crescent
Dec 21
New
Dec 28
First Quarter
Jan 4
Full
Jan 13
Last Quarter

Hourly Weather History & Observations

Time (EST) Temp. Windchill Dew Point Humidity Pressure Visibility Wind Dir Wind Speed Gust Speed Precip Events Conditions
12:56 AM 50.0 °F - 48.0 °F 93% 29.86 in 10.0 mi East 5.8 mph - N/A   Overcast
1:16 AM 50.0 °F - 48.0 °F 93% 29.85 in 10.0 mi ESE 6.9 mph - N/A   Overcast
1:56 AM 50.0 °F - 48.0 °F 93% 29.83 in 10.0 mi East 6.9 mph - N/A   Mostly Cloudy
2:45 AM 51.1 °F - 48.9 °F 92% 29.79 in 10.0 mi East 5.8 mph - 0.00 in Rain Light Rain
2:56 AM 51.1 °F - 48.9 °F 92% 29.78 in 7.0 mi East 6.9 mph - 0.01 in Rain Light Rain
3:14 AM 51.1 °F - 50.0 °F 96% 29.77 in 6.0 mi ESE 8.1 mph - 0.01 in Rain Light Rain
3:24 AM 50.0 °F - 50.0 °F 100% 29.77 in 5.0 mi ESE 10.4 mph 17.3 mph 0.02 in Rain Light Rain
3:56 AM 50.0 °F - 50.0 °F 100% 29.77 in 6.0 mi SSE 8.1 mph 17.3 mph 0.04 in Rain Light Rain
4:13 AM 51.1 °F - 50.0 °F 96% 29.76 in 6.0 mi South 9.2 mph - 0.02 in Rain Light Rain
4:50 AM 50.0 °F - 50.0 °F 100% 29.75 in 6.0 mi South 5.8 mph - 0.03 in Rain Light Rain
4:56 AM 50.0 °F - 48.9 °F 96% 29.75 in 6.0 mi South 5.8 mph - 0.03 in Rain Light Rain
5:06 AM 50.0 °F - 48.9 °F 96% 29.74 in 6.0 mi South 5.8 mph - 0.00 in Rain Light Rain
5:34 AM 50.0 °F - 50.0 °F 100% 29.73 in 6.0 mi South 4.6 mph - 0.01 in Rain Light Rain
5:47 AM 50.0 °F - 50.0 °F 100% 29.73 in 5.0 mi South 4.6 mph - 0.01 in Rain Light Rain
5:56 AM 50.0 °F - 50.0 °F 100% 29.73 in 6.0 mi South 4.6 mph - 0.01 in Rain Light Rain
6:05 AM 50.0 °F - 48.9 °F 96% 29.73 in 5.0 mi South 4.6 mph - 0.00 in Rain Light Rain
6:24 AM 50.0 °F - 48.9 °F 96% 29.72 in 1.0 mi SSE 5.8 mph - 0.00 in Rain Light Rain
6:56 AM 48.9 °F - 48.9 °F 100% 29.72 in 1.0 mi South 4.6 mph - 0.03 in Rain Rain
7:56 AM 48.0 °F - 48.0 °F 100% 29.71 in 0.5 mi Calm Calm - 0.01 in Fog Fog
8:34 AM 48.0 °F - 48.0 °F 100% 29.70 in 0.2 mi SW 3.5 mph - N/A Fog Fog
8:52 AM 50.0 °F - 48.2 °F 94% 29.69 in 2.0 mi SW 6.9 mph - N/A   Mostly Cloudy
8:56 AM 50.0 °F - 50.0 °F 100% 29.70 in 2.0 mi SW 6.9 mph - N/A   Mostly Cloudy
9:12 AM 50.0 °F - 50.0 °F 100% 29.69 in 7.0 mi SSW 5.8 mph - N/A   Mostly Cloudy
9:31 AM 51.1 °F - 50.0 °F 96% 29.70 in 6.0 mi SW 8.1 mph - N/A   Overcast
9:56 AM 52.0 °F - 51.1 °F 97% 29.69 in 6.0 mi WSW 6.9 mph - N/A   Overcast
10:23 AM 52.0 °F - 51.1 °F 97% 29.68 in 10.0 mi SW 5.8 mph - N/A   Overcast
10:56 AM 52.0 °F - 50.0 °F 93% 29.67 in 10.0 mi Variable 5.8 mph - N/A   Overcast
11:24 AM 48.9 °F - 48.0 °F 97% 29.66 in 2.0 mi NW 10.4 mph - N/A   Overcast
11:56 AM 48.9 °F - 46.9 °F 93% 29.66 in 10.0 mi Variable 6.9 mph - N/A   Overcast
12:32 PM 48.9 °F - 46.9 °F 93% 29.65 in 10.0 mi NW 6.9 mph - N/A   Overcast
12:56 PM 48.0 °F - 45.0 °F 89% 29.66 in 10.0 mi WNW 9.2 mph - N/A   Overcast
1:56 PM 46.0 °F 41.0 °F 43.0 °F 89% 29.66 in 10.0 mi WNW 10.4 mph - N/A   Overcast
2:56 PM 46.9 °F - 43.0 °F 86% 29.67 in 10.0 mi WNW 10.4 mph - N/A   Overcast
3:56 PM 46.9 °F - 42.1 °F 83% 29.68 in 10.0 mi WNW 8.1 mph - N/A   Overcast
4:56 PM 46.0 °F 41.9 °F 42.1 °F 86% 29.69 in 10.0 mi West 8.1 mph - N/A   Scattered Clouds
5:38 PM 46.0 °F 41.0 °F 39.9 °F 79% 29.70 in 10.0 mi West 10.4 mph - N/A   Mostly Cloudy
5:56 PM 46.0 °F 41.0 °F 39.9 °F 79% 29.71 in 10.0 mi West 10.4 mph - N/A   Mostly Cloudy
6:08 PM 46.0 °F 41.9 °F 39.9 °F 79% 29.72 in 10.0 mi West 8.1 mph - N/A   Scattered Clouds
6:56 PM 45.0 °F 40.6 °F 39.0 °F 80% 29.72 in 10.0 mi West 8.1 mph - N/A   Mostly Cloudy
7:56 PM 45.0 °F 39.7 °F 37.9 °F 76% 29.72 in 10.0 mi West 10.4 mph - N/A   Overcast
8:56 PM 45.0 °F 40.1 °F 37.9 °F 76% 29.71 in 10.0 mi West 9.2 mph 19.6 mph N/A   Overcast
9:56 PM 45.0 °F 38.5 °F 37.0 °F 74% 29.72 in 10.0 mi West 13.8 mph - N/A   Overcast
10:56 PM 44.1 °F 38.6 °F 36.0 °F 73% 29.71 in 10.0 mi West 10.4 mph - N/A   Overcast
11:56 PM 43.0 °F 37.2 °F 35.1 °F 74% 29.71 in 10.0 mi West 10.4 mph - N/A   Overcast